Location: Balagny
(49.2960°N, 2.3364°E)
Time: 04:17:22
(UTC+00:00)

Daily predictions for brighter satellites

Satellite Brightness Start Highest point End
(mag) Time Altitude Azimuth Time Altitude Azimuth Time Altitude Azimuth
USA 215 4.0 03:20:47 10° E 03:25:43 47° ENE 03:25:43 47° ENE
Cosmos 1943 Rocket 2.7 04:06:38 54° SE 04:06:57 55° ESE 04:12:29 10° NE
CZ-2C R/B 3.9 04:04:50 10° SE 04:09:52 39° ENE 04:13:24 18° N
CENTAUR R/B 2.6 04:16:08 61° S 04:17:03 70° SE 04:24:09 10° NE
Cosmos 2297 3.9 04:21:06 63° SSE 04:21:50 71° ESE 04:27:33 10° NNE
NOSS 3-2 (A) 3.2 04:27:50 85° W 04:27:58 86° NW 04:34:36 10° NE
Cosmos 2278 Rocket 3.8 04:33:50 22° N 04:33:50 22° N 04:36:17 10° NNE
Envisat 4.0 04:30:17 10° NNE 04:35:11 46° E 04:40:03 10° S
NOSS 3-2 (C) 3.6 04:33:35 41° SSW 04:35:35 67° SE 04:42:01 10° NE
SKYMED 2 4.2 04:32:18 10° SSE 04:36:31 54° ENE 04:37:12 48° NE
Cosmos 2098 Rocket 4.3 04:38:41 10° SSE 04:42:21 40° E 04:46:58 10° NNE
Meteor 2-3 Rocket 3.6 04:37:10 10° S 04:42:50 90° NNE 04:48:37 10° NNE
Cosmos 968 Rocket 3.6 04:42:38 22° S 04:46:01 72° ESE 04:51:09 10° NNE
Landsat 5 4.3 04:41:48 10° SSE 04:46:11 54° ENE 04:48:26 27° N
Cosmos 921 Rocket 3.0 04:50:35 76° SSE 04:50:35 76° SSE 04:54:42 10° SSE
DNEPR-1 R/B 4.0 04:53:14 52° NNW 04:54:18 71° NE 04:59:46 10° SE
Meteor 1-26 Rocket 4.2 04:53:51 35° NNW 04:56:20 67° W 05:02:04 10° S
Cosmos 1812 2.8 04:56:57 73° ESE 04:56:57 73° ESE 05:00:36 10° SSE
H-2A R/B 4.2 04:53:33 10° ESE 04:57:01 25° ENE 05:00:34 10° N
Cosmos 1151 Rocket 3.1 05:01:35 31° N 05:03:38 80° E 05:08:00 10° SSE
USA 238 DEB 3.5 05:00:10 31° SW 05:03:38 80° NW 05:10:36 10° NE
USA 238 3.5 05:00:13 30° SW 05:03:44 81° NW 05:10:42 10° NE
Cosmos 2344 3.6 05:03:34 36° W 05:06:35 59° NW 05:14:39 10° NE
Cosmos 1766 Rocket 4.1 05:02:49 10° S 05:07:04 58° E 05:11:20 10° NNE
USA 215 3.2 05:03:32 10° SE 05:10:04 73° SW 05:13:03 35° WNW
Kosmos-917 3.7 05:12:29 65° NW 05:12:31 65° NW 05:17:34 10° NE
Meteor 1-31 Rocket 2.8 05:09:47 10° NNE 05:13:42 77° ESE 05:17:36 10° S
Cosmos 2279 Rocket 3.9 05:07:57 10° N 05:14:11 87° E 05:20:23 10° S
Cosmos 2297 Rocket 4.4 05:10:28 10° N 05:14:15 18° NE 05:18:03 10° ENE
Cosmos 1328 Rocket 3.6 05:12:41 15° N 05:16:19 77° E 05:20:39 10° SSE
SJ-12 3.8 05:15:00 10° N 05:19:07 70° WNW 05:23:14 10° SSW
FALCON 9 DEB 2.9 05:21:07 82° W 05:21:14 86° NNW 05:24:38 10° ENE
Cosmos 2369 Rocket 2.1 05:15:52 10° SSW 05:21:28 90° ESE 05:27:07 10° NNE
Cosmos 1862 3.3 05:19:23 10° S 05:23:19 82° E 05:27:18 10° NNE
COSMO-SKYMED 1 2.7 05:20:23 10° S 05:24:37 51° W 05:25:48 39° NW
H-2A R/B 2.7 05:23:28 10° N 05:27:06 53° WNW 05:30:44 10° SSW
Cosmos 1634 Rocket 4.1 05:23:08 10° NNW 05:29:09 50° W 05:35:07 10° SSW
Lacrosse 4 Rocket 4.2 05:35:46 10° NNE 05:36:20 10° NNE 05:36:53 10° NNE
CZ-4B R/B 3.8 05:33:00 10° NNE 05:36:27 43° E 05:39:52 10° S
Tsikada Rocket 4.4 05:33:04 10° SW 05:38:46 37° WNW 05:44:34 10° N
CZ-4B R/B 3.5 05:37:47 10° SE 05:40:38 26° ENE 05:43:26 10° N
YAOGAN 6 4.2 05:38:47 10° N 05:40:14 20° NNW 05:40:14 20° NNW
Cosmos 783 Rocket 4.5 05:37:36 12° NNW 05:42:24 86° ENE 05:47:36 10° SSE
Cosmos 1408 Rocket 3.9 05:38:11 10° S 05:42:26 65° E 05:46:43 10° NNE
Cosmos 1656 Rocket 3.5 05:39:43 10° SSW 05:45:07 82° WNW 05:50:37 10° NNE
CZ-4C R/B 3.0 05:42:33 10° S 05:45:34 42° W 05:46:01 39° WNW
Cosmos 1503 Rocket 4.1 05:40:21 10° SSW 05:45:37 83° ESE 05:51:00 10° NNE
DMSP B5D2-2 4.0 05:40:47 10° SSE 05:46:01 85° WSW 05:51:16 10° NNW
Cosmos 2227 Rocket 4.2 05:45:32 10° N 05:49:49 21° NE 05:54:04 10° E
CZ-2C R/B 3.2 05:45:08 10° SSW 05:50:10 37° W 05:54:54 11° NNW
Cosmos 1943 Rocket 2.9 05:48:15 21° W 05:51:01 32° NW 05:56:05 10° NNE
Cosmos 1486 Rocket 4.1 05:48:08 10° SW 05:53:20 55° WNW 05:58:32 10° NNE
Cosmos 1515 Rocket 3.4 05:52:14 10° NNW 05:56:37 75° W 06:00:57 10° S
SL-8 R/B 4.2 05:54:22 22° W 05:57:15 50° SSW 06:01:52 10° SE
FALCON 9 DEB 3.3 05:56:51 32° NW 05:57:40 41° N 06:00:27 10° ENE
Meteor 2-15 4.4 05:51:50 10° NNW 05:57:51 68° W 06:03:51 10° S
Meteor 1-27 Rocket 3.7 05:53:57 10° NNW 05:59:36 90° W 06:05:20 10° S
COSMOS 2487 3.6 06:00:28 10° N 06:03:39 38° ENE 06:06:48 10° SE
Cosmos 773 Rocket 3.9 05:58:48 10° NNW 06:04:03 72° WSW 06:09:12 10° SSE
FALCON 9 DEB 3.4 06:03:16 26° NW 06:04:18 37° N 06:07:01 10° ENE
FALCON 9 DEB 3.4 06:05:16 25° NW 06:06:22 36° N 06:09:05 10° ENE
SJ 16-02 2.2 06:02:42 10° S 06:06:57 53° ESE 06:11:13 10° NNE
NOAA 11 4.1 06:02:33 10° N 06:07:59 67° WNW 06:13:25 10° SSW
CENTAUR R/B 3.2 06:03:21 15° W 06:08:17 40° NNW 06:15:24 10° NE
Alouette 2 Rocket 3.4 06:06:03 10° NNW 06:10:07 76° ENE 06:13:39 10° SSE
NOAA 12 4.1 06:07:52 10° NNE 06:13:11 88° WNW 06:18:27 10° SSW
Meteor 2-19 Rocket 4.4 06:07:27 10° SSW 06:13:30 76° W 06:19:36 10° N
Envisat 3.8 06:09:40 10° N 06:14:01 29° WNW 06:18:19 10° WSW
Cosmos 1340 Rocket 3.1 06:11:17 10° S 06:15:12 72° E 06:19:13 10° NNE
Cosmos 2278 Rocket 4.1 06:15:46 10° NW 06:17:13 11° NNW 06:18:41 10° N
SL-27 R/B 2.6 06:14:04 12° NNW 06:17:19 54° WSW 06:20:47 10° S
Cosmos 1500 Rocket 3.6 06:14:12 10° S 06:18:39 88° ESE 06:23:10 10° N
NOSS 3-2 (A) 4.4 06:15:14 14° W 06:19:46 32° NNW 06:25:57 10° NE
Cosmos 1939 Rocket 2.7 06:15:48 10° NNE 06:19:46 83° WNW 06:23:40 10° SSW
FALCON 9 DEB 3.4 06:21:30 17° WNW 06:23:23 37° N 06:26:08 10° ENE
Cosmos 2098 Rocket 4.2 06:20:21 10° WSW 06:23:41 23° WNW 06:27:40 10° N
NOSS 3-2 (C) 4.1 06:21:27 10° W 06:26:57 38° NNW 06:33:21 10° NE
Okean O Rocket 3.9 06:26:15 10° NE 06:30:06 28° E 06:33:56 10° SSE
Cosmos 1805 Rocket 3.9 06:25:56 10° S 06:30:18 70° E 06:34:40 10° NNE
Sich 1 3.8 06:27:57 10° S 06:32:09 57° E 06:36:21 10° NNE
H-2A R/B 2.5 06:28:43 10° S 06:32:46 42° W 06:36:56 10° NNW
Cosmos 2026 Rocket 4.4 06:26:48 10° S 06:33:06 73° E 06:39:23 10° NNE
Meteor 1-25 Rocket 4.5 06:29:02 10° S 06:34:39 76° E 06:40:14 10° NNE
ATLAS 3B R/B 3.3 06:28:41 10° SSW 06:35:04 60° ESE 06:41:49 10° NE
ADEOS 4.1 06:33:26 10° N 06:38:09 35° WNW 06:42:50 10° SW
Cosmos 1174 3.7 06:35:29 10° SSW 06:38:24 60° ESE 06:41:31 10° NE
Cosmos 1500 4.0 06:35:04 10° S 06:38:48 55° E 06:42:32 10° NNE
ATLAS 5 CENTAUR R/B 2.0 06:35:05 10° SSW 06:38:53 62° SE 06:43:12 10° NE
Cosmos 158 Rocket 4.0 06:34:19 10° NNW 06:39:26 78° WSW 06:44:38 10° SSE
Cosmos 1515 3.9 06:41:24 10° NNW 06:45:06 51° W 06:48:47 10° S
Cosmos 1354 Rocket 4.4 06:40:57 10° SW 06:45:57 42° WNW 06:51:00 10° NNE
Okean 1 3.3 06:42:07 10° N 06:46:07 89° E 06:50:03 10° S
CZ-2C R/B 3.4 06:42:07 10° N 06:46:35 38° WNW 06:51:10 10° SW
Meteor 1-18 Rocket 4.5 06:46:23 10° N 06:52:19 82° E 06:58:05 10° SSE
USA 238 DEB 4.5 06:49:40 10° W 06:55:35 32° NNW 07:01:53 10° NE
USA 238 4.5 06:49:45 10° W 06:55:42 32° NNW 07:01:59 10° NE
